Regional Weather Roundup
Issued by NWS Sioux Falls, SD

Home | Current Version | Previous Version | Text Only | Print | Product List | Glossary Off
Versions: 1 2 3 4 5 6 7 8 9 10 11 12 13 14 15 16 17 18 19 20 21 22 23 24 25 26 27 28 29 30 31 32 33 34 35 36 37 38 39 40 41 42 43 44 45 46 47 48 49 50

000
ASUS43 KFSD 291810
RWRFSD

WEATHER ROUNDUP FOR SE SOUTH DAKOTA/SW MINNESOTA/NW IOWA
NATIONAL WEATHER SERVICE SIOUX FALLS SD
100 PM CDT WED OCT 29 2014

NOTE: "FAIR" INDICATES FEW OR NO CLOUDS BELOW 12,000 FEET WITH NO
SIGNIFICANT WEATHER AND OR OBSTRUCTIONS TO VISIBILITY.


SDZ038>040-050-052>070-291900-
SOUTHEAST SOUTH DAKOTA

CITY           SKY/WX    TMP DP  RH WIND       PRES   REMARKS
CHAMBERLAIN    SUNNY     50  31  47 SE14G20   30.07F
6HR MIN TEMP:  19; 6HR MAX TEMP:  50;

HURON          SUNNY     47  30  51 S10       30.12F
6HR MIN TEMP:  28; 6HR MAX TEMP:  47;

MADISON        FAIR      45  32  61 S5        30.14F
MITCHELL       SUNNY     47  32  56 SE7       30.15F
6HR MIN TEMP:  27; 6HR MAX TEMP:  47;

SIOUX FALLS    FAIR      46  33  60 VRB3      30.16F
6HR MIN TEMP:  31; 6HR MAX TEMP:  46;

WINNER         FAIR      57  25  29 S15       30.05F
$$

MNZ071-072-080-081-089-090-097-098-291900-
SOUTHWEST MINNESOTA

CITY           SKY/WX    TMP DP  RH WIND       PRES   REMARKS
FAIRMONT       PTSUNNY   45  28  53 SW5       30.17F
JACKSON        FAIR      45  30  57 CALM      30.16F
LUVERNE        FAIR      46  32  57 SW3       30.16F
MARSHALL       FAIR      43  28  56 N6        30.15F
6HR MIN TEMP:  36; 6HR MAX TEMP:  43;

MONTEVIDEO     CLOUDY    39  32  75 N5        30.18S
PIPESTONE      FAIR      45  30  57 W7        30.14F
REDWOOD FALLS  PTSUNNY   41  30  65 NW5       30.16F
TRACY          FAIR      45  32  60 CALM      30.16F
WINDOM         FAIR      45  30  57 CALM      30.16F
WORTHINGTON    FAIR      45  28  53 NW5       30.16F
$$

IAZ001>003-012>014-020>022-031-032-NEZ013-014-SDZ071-291900-
NORTHWEST IOWA

CITY           SKY/WX    TMP DP  RH WIND       PRES   REMARKS
CHEROKEE       FAIR      47  33  57 W3        30.18F
DENISON        FAIR      48  32  53 W7        30.18F
ESTHERVILLE    FAIR      44  30  57 MISG      30.16F
LE MARS        FAIR      48  32  53 VRB3      30.18F
ORANGE CITY    FAIR      48  30  49 SW6       30.17F
SHELDON        FAIR      46  32  57 SW6       30.15F
SIOUX CITY     FAIR      49  32  52 SW5       30.19F
6HR MIN TEMP:  28; 6HR MAX TEMP:  49;

SPENCER        FAIR      47  31  53 W7        30.17F
6HR MIN TEMP:  39; 6HR MAX TEMP:  48;

STORM LAKE     FAIR      46  30  53 VRB3      30.18F
$$

ABBREVIATIONS USED IN REMARKS
   TC - TEMPERATURE IN CELSIUS
  WCI - WIND CHILL INDEX
   HX - HEAT INDEX
  VSB - VISIBILITY




USA.gov is the U.S. government's official web portal to all federal, state and local government web resources and services.